Location: ??????
(41.3164°N, 22.6615°E)
Time: 10:15:03
(UTC+00:00)

Cosmos 1758 - Pass Details

Date: 16 October 2021
Orbit: 540 x 560 km, 82.5° (Epoch: 03 December)

Event Time Altitude Azimuth Distance (km) Brightness Sun altitude
Rises 16:24:08 0° 186° (S) 2,705 7.0 -7.8°
Reaches altitude 10° 16:26:17 10° 187° (S) 1,813 6.1 -8.2°
Maximum altitude 16:30:17 90° 213° (SSW) 551 3.3 -8.9°
Drops below altitude 10° 16:34:17 10° 8° (N) 1,817 5.9 -9.7°
Sets 16:36:27 0° 8° (N) 2,712 6.7 -10.1°
